owner,sensor,date,latitude,longitude,vertical_datum,wind_speed,wind_to_direction,wind_speed_of_gust,qcFlag 
TABS,ioos:station:wmo:42044:1,2019-11-01T03:30:00Z,26.1914,-97.0507,0.0,5.32,2.9,11.35,'11111222,11111222,11111222' 
TABS,ioos:station:wmo:42044:1,2019-11-01T04:30:00Z,26.1914,-97.0507,0.0,5.72,355.3,10.33,'11111222,11111222,11111222' 
TABS,ioos:station:wmo:42044:1,2019-11-01T06:00:00Z,26.1914,-97.0507,0.0,4.97,9.9,11.01,'11111222,11111222,11111222' 
TABS,ioos:station:wmo:42044:1,2019-11-01T07:00:00Z,26.1914,-97.0507,0.0,3.98,13.4,9.74,'11111222,11111222,11111222' 
TABS,ioos:station:wmo:42044:1,2019-11-01T08:00:00Z,26.1914,-97.0507,0.0,4.11,7.0,9.79,'11111222,11111222,11111222' 
TABS,ioos:station:wmo:42044:1,2019-11-01T09:00:00Z,26.1914,-97.0507,0.0,4.56,20.6,8.24,'11111222,11111222,11111222' 
TABS,ioos:station:wmo:42044:1,2019-11-01T10:00:00Z,26.1914,-97.0507,0.0,3.27,31.4,6.75,'11111222,11111222,11111222' 
TABS,ioos:station:wmo:42044:1,2019-11-01T11:00:00Z,26.1914,-97.0507,0.0,3.66,23.6,6.93,'11111222,11111222,11111222' 
TABS,ioos:station:wmo:42044:1,2019-11-01T12:00:00Z,26.1914,-97.0507,0.0,4.08,25.1,6.36,'11111222,11111222,11111222' 
TABS,ioos:station:wmo:42044:1,2019-11-01T13:00:00Z,26.1914,-97.0507,0.0,3.46,26.6,6.26,'11111222,11111222,11111222' 
TABS,ioos:station:wmo:42044:1,2019-11-01T15:00:00Z,26.1914,-97.0507,0.0,4.36,29.1,6.06,'11111222,11111222,11111222' 
TABS,ioos:station:wmo:42044:1,2019-11-01T16:00:00Z,26.1914,-97.0507,0.0,3.8,28.6,5.89,'11111222,11111222,11111222' 
TABS,ioos:station:wmo:42044:1,2019-11-01T17:00:00Z,26.1914,-97.0507,0.0,3.09,16.7,5.05,'11111222,11111222,11111222' 
TABS,ioos:station:wmo:42044:1,2019-11-01T17:30:00Z,26.1914,-97.0507,0.0,3.22,8.5,5.13,'11111222,11111222,11111222' 
TABS,ioos:station:wmo:42044:1,2019-11-01T19:00:00Z,26.1914,-97.0507,0.0,3.19,34.2,4.89,'11111222,11111222,11111222' 
TABS,ioos:station:wmo:42044:1,2019-11-01T20:00:00Z,26.1914,-97.0507,0.0,2.94,33.5,5.21,'11111222,11111222,11111222' 
TABS,ioos:station:wmo:42044:1,2019-11-01T21:00:00Z,26.1914,-97.0507,0.0,3.44,40.4,5.64,'11111222,11111222,11111222' 
TABS,ioos:station:wmo:42044:1,2019-11-01T22:00:00Z,26.1914,-97.0507,0.0,3.11,46.8,4.84,'11111222,11111222,11111222' 
TABS,ioos:station:wmo:42044:1,2019-11-01T23:00:00Z,26.1914,-97.0507,0.0,2.64,58.9,4.41,'11111222,11111222,11111222' 
TABS,ioos:station:wmo:42044:1,2019-11-01T23:30:00Z,26.1914,-97.0507,0.0,2.65,72.4,3.86,'11111222,11111222,11111222' 
TABS,ioos:station:wmo:42044:1,2019-11-02T04:00:00Z,26.1914,-97.0507,0.0,2.26,117.8,3.73,'11111222,11111222,11111222' 
TABS,ioos:station:wmo:42044:1,2019-11-02T05:00:00Z,26.1914,-97.0507,0.0,1.98,89.6,3.31,'11111222,11111222,11111222' 
TABS,ioos:station:wmo:42044:1,2019-11-02T06:00:00Z,26.1914,-97.0507,0.0,2.58,63.5,4.07,'11111222,11111222,11111222' 
TABS,ioos:station:wmo:42044:1,2019-11-02T07:30:00Z,26.1914,-97.0507,0.0,2.73,52.4,4.29,'11111222,11111222,11111222' 
TABS,ioos:station:wmo:42044:1,2019-11-02T09:00:00Z,26.1914,-97.0507,0.0,2.73,51.9,4.18,'11111222,11111222,11111222' 
TABS,ioos:station:wmo:42044:1,2019-11-02T10:00:00Z,26.1914,-97.0507,0.0,3.72,31.5,4.7,'11111222,11111222,11111222' 
TABS,ioos:station:wmo:42044:1,2019-11-02T11:00:00Z,26.1914,-97.0507,0.0,5.04,31.3,6.78,'11111222,11111222,11111222' 
TABS,ioos:station:wmo:42044:1,2019-11-02T13:00:00Z,26.1914,-97.0507,0.0,6.57,12.4,8.3,'11111222,11111222,11111222' 
TABS,ioos:station:wmo:42044:1,2019-11-02T14:00:00Z,26.1914,-97.0507,0.0,7.07,359.8,8.64,'11111222,11144222,11111222' 
TABS,ioos:station:wmo:42044:1,2019-11-02T15:00:00Z,26.1914,-97.0507,0.0,7.12,4.0,8.7,'11111222,11111222,11111222' 
TABS,ioos:station:wmo:42044:1,2019-11-02T16:00:00Z,26.1914,-97.0507,0.0,8.87,358.6,10.69,'11111222,11111222,11111222' 
TABS,ioos:station:wmo:42044:1,2019-11-02T17:00:00Z,26.1914,-97.0507,0.0,8.41,353.0,10.73,'11111222,11111222,11111222' 
TABS,ioos:station:wmo:42044:1,2019-11-02T18:00:00Z,26.1914,-97.0507,0.0,9.5,15.4,12.04,'11111222,11111222,11111222' 
TABS,ioos:station:wmo:42044:1,2019-11-02T19:00:00Z,26.1914,-97.0507,0.0,9.12,0.4,12.19,'11111222,11111222,11111222' 
TABS,ioos:station:wmo:42044:1,2019-11-02T21:00:00Z,26.1914,-97.0507,0.0,8.6,7.6,10.68,'11111222,11111222,11111222' 
TABS,ioos:station:wmo:42044:1,2019-11-02T23:00:00Z,26.1914,-97.0507,0.0,8.08,21.8,10.57,'11111222,11111222,11111222' 
TABS,ioos:station:wmo:42044:1,2019-11-02T23:30:00Z,26.1914,-97.0507,0.0,7.92,33.7,10.37,'11111222,11111222,11111222' 
TABS,ioos:station:wmo:42044:1,2019-11-03T04:00:00Z,26.1914,-97.0507,0.0,6.35,59.6,8.47,'11111222,11111222,11111222' 
TABS,ioos:station:wmo:42044:1,2019-11-03T05:00:00Z,26.1914,-97.0507,0.0,5.45,59.8,7.74,'11111222,11111222,11111222' 
TABS,ioos:station:wmo:42044:1,2019-11-03T06:00:00Z,26.1914,-97.0507,0.0,4.6,65.0,6.43,'11111222,11111222,11111222' 
TABS,ioos:station:wmo:42044:1,2019-11-03T07:00:00Z,26.1914,-97.0507,0.0,5.1,50.0,7.69,'11111222,11111222,11111222' 
TABS,ioos:station:wmo:42044:1,2019-11-03T08:00:00Z,26.1914,-97.0507,0.0,4.14,59.9,6.01,'11111222,11111222,11111222' 
TABS,ioos:station:wmo:42044:1,2019-11-03T09:00:00Z,26.1914,-97.0507,0.0,3.74,47.5,5.52,'11111222,11111222,11111222' 
TABS,ioos:station:wmo:42044:1,2019-11-03T10:00:00Z,26.1914,-97.0507,0.0,4.1,59.8,5.92,'11111222,11111222,11111222' 
TABS,ioos:station:wmo:42044:1,2019-11-03T11:00:00Z,26.1914,-97.0507,0.0,4.45,53.3,6.29,'11111222,11111222,11111222' 
TABS,ioos:station:wmo:42044:1,2019-11-03T12:00:00Z,26.1914,-97.0507,0.0,4.09,62.3,5.57,'11111222,11111222,11111222' 
TABS,ioos:station:wmo:42044:1,2019-11-03T14:00:00Z,26.1914,-97.0507,0.0,4.03,72.3,5.4,'11111222,11111222,11111222' 
TABS,ioos:station:wmo:42044:1,2019-11-03T15:00:00Z,26.1914,-97.0507,0.0,4.19,83.1,5.54,'11111222,11111222,11111222' 
TABS,ioos:station:wmo:42044:1,2019-11-03T16:00:00Z,26.1914,-97.0507,0.0,4.04,87.1,5.42,'11111222,11111222,11111222' 
TABS,ioos:station:wmo:42044:1,2019-11-03T17:00:00Z,26.1914,-97.0507,0.0,3.76,91.8,5.17,'11111222,11111222,11111222' 
TABS,ioos:station:wmo:42044:1,2019-11-03T18:00:00Z,26.1914,-97.0507,0.0,3.65,83.0,5.41,'11111222,11111222,11111222' 
TABS,ioos:station:wmo:42044:1,2019-11-03T19:00:00Z,26.1914,-97.0507,0.0,2.79,116.9,3.81,'11111222,11111222,11111222' 
TABS,ioos:station:wmo:42044:1,2019-11-03T21:00:00Z,26.1914,-97.0507,0.0,3.0,118.4,4.61,'11111222,11111222,11111222' 
TABS,ioos:station:wmo:42044:1,2019-11-03T22:00:00Z,26.1914,-97.0507,0.0,3.07,126.4,4.38,'11111222,11111222,11111222' 
TABS,ioos:station:wmo:42044:1,2019-11-03T23:30:00Z,26.1914,-97.0507,0.0,3.14,128.7,4.33,'11111222,11111222,11111222' 
TABS,ioos:station:wmo:42044:1,2019-11-04T04:30:00Z,26.1914,-97.0507,0.0,3.83,160.6,4.7,'11111222,11111222,11111222' 
TABS,ioos:station:wmo:42044:1,2019-11-04T15:30:00Z,26.1914,-97.0507,0.0,3.45,157.7,4.34,'11111222,11111222,11111222' 
TABS,ioos:station:wmo:42044:1,2019-11-04T16:00:00Z,26.1914,-97.0507,0.0,2.97,157.8,3.61,'11111222,11111222,11111222' 
TABS,ioos:station:wmo:42044:1,2019-11-04T17:00:00Z,26.1914,-97.0507,0.0,3.39,154.6,4.28,'11111222,11111222,11111222' 
TABS,ioos:station:wmo:42044:1,2019-11-04T18:00:00Z,26.1914,-97.0507,0.0,3.89,158.8,4.74,'11111222,11111222,11111222' 
TABS,ioos:station:wmo:42044:1,2019-11-04T19:00:00Z,26.1914,-97.0507,0.0,4.02,152.0,4.85,'11111222,11111222,11111222' 
TABS,ioos:station:wmo:42044:1,2019-11-04T20:00:00Z,26.1914,-97.0507,0.0,3.86,154.7,4.67,'11111222,11111222,11111222' 
TABS,ioos:station:wmo:42044:1,2019-11-04T21:00:00Z,26.1914,-97.0507,0.0,4.38,154.7,5.8,'11111222,11111222,11111222' 
TABS,ioos:station:wmo:42044:1,2019-11-04T21:30:00Z,26.1914,-97.0507,0.0,3.82,149.2,4.8,'11111222,11111222,11111222' 
TABS,ioos:station:wmo:42044:1,2019-11-04T23:00:00Z,26.1914,-97.0507,0.0,4.28,156.0,5.32,'11111222,11111222,11111222' 
TABS,ioos:station:wmo:42044:1,2019-11-04T23:30:00Z,26.1914,-97.0507,0.0,3.55,148.5,4.3,'11111222,11111222,11111222' 
TABS,ioos:station:wmo:42044:1,2019-11-05T05:00:00Z,26.1914,-97.0507,0.0,3.43,154.6,4.41,'11111222,11111222,11111222' 
TABS,ioos:station:wmo:42044:1,2019-11-05T06:00:00Z,26.1914,-97.0507,0.0,4.34,168.1,5.66,'11111222,11111222,11111222' 
TABS,ioos:station:wmo:42044:1,2019-11-05T07:00:00Z,26.1914,-97.0507,0.0,4.93,179.4,6.28,'11111222,11111222,11111222' 
TABS,ioos:station:wmo:42044:1,2019-11-05T08:00:00Z,26.1914,-97.0507,0.0,4.61,186.1,5.94,'11111222,11111222,11111222' 
TABS,ioos:station:wmo:42044:1,2019-11-05T09:00:00Z,26.1914,-97.0507,0.0,3.34,190.5,4.33,'11111222,11111222,11111222' 
TABS,ioos:station:wmo:42044:1,2019-11-05T10:00:00Z,26.1914,-97.0507,0.0,2.44,172.4,2.96,'11111222,11111222,11111222' 
TABS,ioos:station:wmo:42044:1,2019-11-05T11:00:00Z,26.1914,-97.0507,0.0,2.88,149.3,3.46,'11111222,11111222,11111222' 
TABS,ioos:station:wmo:42044:1,2019-11-05T12:00:00Z,26.1914,-97.0507,0.0,2.4,147.7,3.06,'11111222,11111222,11111222' 
TABS,ioos:station:wmo:42044:1,2019-11-05T13:00:00Z,26.1914,-97.0507,0.0,2.69,118.2,3.48,'11111222,11111222,11111222' 
TABS,ioos:station:wmo:42044:1,2019-11-05T14:00:00Z,26.1914,-97.0507,0.0,1.82,97.0,2.27,'11111222,11111222,11111222' 
TABS,ioos:station:wmo:42044:1,2019-11-05T15:00:00Z,26.1914,-97.0507,0.0,1.94,87.8,2.45,'11111222,11111222,11111222' 
TABS,ioos:station:wmo:42044:1,2019-11-05T15:30:00Z,26.1914,-97.0507,0.0,2.52,64.6,3.1,'11111222,11111222,11111222' 
TABS,ioos:station:wmo:42044:1,2019-11-05T17:00:00Z,26.1914,-97.0507,0.0,2.71,94.8,3.29,'11111222,11111222,11111222' 
TABS,ioos:station:wmo:42044:1,2019-11-05T18:00:00Z,26.1914,-97.0507,0.0,1.46,69.7,2.08,'11111222,11111222,11111222' 
TABS,ioos:station:wmo:42044:1,2019-11-05T19:00:00Z,26.1914,-97.0507,0.0,1.59,100.6,2.22,'11111222,11111222,11111222' 
TABS,ioos:station:wmo:42044:1,2019-11-05T20:00:00Z,26.1914,-97.0507,0.0,2.41,103.8,3.17,'11111222,11111222,11111222' 
TABS,ioos:station:wmo:42044:1,2019-11-05T21:00:00Z,26.1914,-97.0507,0.0,2.71,94.8,3.3,'11111222,11111222,11111222' 
TABS,ioos:station:wmo:42044:1,2019-11-05T22:00:00Z,26.1914,-97.0507,0.0,4.23,95.2,5.23,'11111222,11111222,11111222' 
TABS,ioos:station:wmo:42044:1,2019-11-05T23:00:00Z,26.1914,-97.0507,0.0,5.65,116.9,6.67,'11111222,11111222,11111222' 
TABS,ioos:station:wmo:42044:1,2019-11-05T23:30:00Z,26.1914,-97.0507,0.0,6.05,117.2,7.81,'11111222,11111222,11111222' 
TABS,ioos:station:wmo:42044:1,2019-11-06T04:30:00Z,26.1914,-97.0507,0.0,3.81,125.7,4.45,'11111222,11111222,11111222' 
TABS,ioos:station:wmo:42044:1,2019-11-06T05:30:00Z,26.1914,-97.0507,0.0,4.35,122.5,5.28,'11111222,11111222,11111222' 
TABS,ioos:station:wmo:42044:1,2019-11-06T07:00:00Z,26.1914,-97.0507,0.0,4.05,125.7,4.87,'11111222,11111222,11111222' 
TABS,ioos:station:wmo:42044:1,2019-11-06T08:00:00Z,26.1914,-97.0507,0.0,3.77,117.9,4.6,'11111222,11111222,11111222' 
TABS,ioos:station:wmo:42044:1,2019-11-06T09:00:00Z,26.1914,-97.0507,0.0,4.27,111.0,5.23,'11111222,11111222,11111222' 
TABS,ioos:station:wmo:42044:1,2019-11-06T10:00:00Z,26.1914,-97.0507,0.0,4.13,114.2,4.99,'11111222,11111222,11111222' 
TABS,ioos:station:wmo:42044:1,2019-11-06T11:00:00Z,26.1914,-97.0507,0.0,3.83,110.3,4.45,'11111222,11111222,11111222' 
TABS,ioos:station:wmo:42044:1,2019-11-06T12:30:00Z,26.1914,-97.0507,0.0,3.87,104.4,5.17,'11111222,11111222,11111222' 
TABS,ioos:station:wmo:42044:1,2019-11-06T13:30:00Z,26.1914,-97.0507,0.0,3.38,89.6,4.28,'11111222,11111222,11111222' 
TABS,ioos:station:wmo:42044:1,2019-11-06T14:30:00Z,26.1914,-97.0507,0.0,3.54,101.4,4.33,'11111222,11111222,11111222' 
TABS,ioos:station:wmo:42044:1,2019-11-06T16:00:00Z,26.1914,-97.0507,0.0,4.41,104.7,5.44,'11111222,11111222,11111222' 
TABS,ioos:station:wmo:42044:1,2019-11-06T17:00:00Z,26.1914,-97.0507,0.0,3.6,106.6,4.41,'11111222,11111222,11111222' 
TABS,ioos:station:wmo:42044:1,2019-11-06T20:00:00Z,26.1914,-97.0507,0.0,3.12,104.2,3.89,'11111222,11111222,11111222' 
TABS,ioos:station:wmo:42044:1,2019-11-06T21:00:00Z,26.1914,-97.0507,0.0,3.48,109.2,4.25,'11111222,11111222,11111222' 
TABS,ioos:station:wmo:42044:1,2019-11-06T22:00:00Z,26.1914,-97.0507,0.0,3.34,100.4,4.2,'11111222,11111222,11111222' 
TABS,ioos:station:wmo:42044:1,2019-11-06T23:00:00Z,26.1914,-97.0507,0.0,3.16,109.3,4.0,'11111222,11111222,11111222' 
TABS,ioos:station:wmo:42044:1,2019-11-06T23:30:00Z,26.1914,-97.0507,0.0,3.28,101.6,3.94,'11111222,11111222,11111222' 
TABS,ioos:station:wmo:42044:1,2019-11-07T04:00:00Z,26.1914,-97.0507,0.0,3.96,119.3,4.85,'11111222,11111222,11111222' 
TABS,ioos:station:wmo:42044:1,2019-11-07T06:00:00Z,26.1914,-97.0507,0.0,4.8,145.9,5.66,'11111222,11111222,11111222' 
TABS,ioos:station:wmo:42044:1,2019-11-07T07:00:00Z,26.1914,-97.0507,0.0,4.72,142.0,5.78,'11111222,11111222,11111222' 
TABS,ioos:station:wmo:42044:1,2019-11-07T08:00:00Z,26.1914,-97.0507,0.0,3.37,133.4,4.16,'11111222,11111222,11111222' 
TABS,ioos:station:wmo:42044:1,2019-11-07T09:00:00Z,26.1914,-97.0507,0.0,3.22,125.3,4.02,'11111222,11111222,11111222' 
TABS,ioos:station:wmo:42044:1,2019-11-07T10:00:00Z,26.1914,-97.0507,0.0,3.66,123.3,4.45,'11111222,11111222,11111222' 
TABS,ioos:station:wmo:42044:1,2019-11-07T11:00:00Z,26.1914,-97.0507,0.0,3.56,134.5,4.51,'11111222,11111222,11111222' 
TABS,ioos:station:wmo:42044:1,2019-11-07T13:00:00Z,26.1914,-97.0507,0.0,4.17,147.5,5.08,'11111222,11111222,11111222' 
TABS,ioos:station:wmo:42044:1,2019-11-07T13:30:00Z,26.1914,-97.0507,0.0,3.41,137.0,4.43,'11111222,11111222,11111222' 
TABS,ioos:station:wmo:42044:1,2019-11-07T14:30:00Z,26.1914,-97.0507,0.0,2.86,132.5,3.5,'11111222,11111222,11111222' 
TABS,ioos:station:wmo:42044:1,2019-11-07T15:30:00Z,26.1914,-97.0507,0.0,1.96,118.6,2.47,'11111222,11111222,11111222' 
TABS,ioos:station:wmo:42044:1,2019-11-07T17:00:00Z,26.1914,-97.0507,0.0,2.78,138.3,3.42,'11111222,11111222,11111222' 
TABS,ioos:station:wmo:42044:1,2019-11-07T18:00:00Z,26.1914,-97.0507,0.0,2.56,118.4,3.32,'11111222,11111222,11111222' 
TABS,ioos:station:wmo:42044:1,2019-11-07T20:30:00Z,26.1914,-97.0507,0.0,2.45,118.7,3.04,'11111222,11111222,11111222' 
TABS,ioos:station:wmo:42044:1,2019-11-07T22:00:00Z,26.1914,-97.0507,0.0,2.72,126.3,3.3,'11111222,11111222,11111222' 
TABS,ioos:station:wmo:42044:1,2019-11-07T23:00:00Z,26.1914,-97.0507,0.0,2.1,127.5,2.74,'11111222,11111222,11111222' 
TABS,ioos:station:wmo:42044:1,2019-11-07T23:30:00Z,26.1914,-97.0507,0.0,2.62,127.1,3.24,'11111222,11111222,11111222' 
TABS,ioos:station:wmo:42044:1,2019-11-08T05:00:00Z,26.1914,-97.0507,0.0,8.96,41.7,11.21,'11111222,11111222,11111222' 
TABS,ioos:station:wmo:42044:1,2019-11-08T06:00:00Z,26.1914,-97.0507,0.0,9.68,23.9,13.66,'11111222,11111222,11111222' 
TABS,ioos:station:wmo:42044:1,2019-11-08T07:00:00Z,26.1914,-97.0507,0.0,10.63,22.8,13.19,'11111222,11111222,11111222' 
TABS,ioos:station:wmo:42044:1,2019-11-08T08:00:00Z,26.1914,-97.0507,0.0,10.98,16.2,14.61,'11111222,11111222,11111222' 
TABS,ioos:station:wmo:42044:1,2019-11-08T10:00:00Z,26.1914,-97.0507,0.0,12.26,348.0,15.59,'11111222,11111222,11111222' 
TABS,ioos:station:wmo:42044:1,2019-11-08T11:00:00Z,26.1914,-97.0507,0.0,11.89,337.8,16.62,'11111222,11111222,11111222' 
TABS,ioos:station:wmo:42044:1,2019-11-08T12:00:00Z,26.1914,-97.0507,0.0,10.84,336.2,14.84,'11111222,11111222,11111222' 
TABS,ioos:station:wmo:42044:1,2019-11-08T13:00:00Z,26.1914,-97.0507,0.0,4.78,335.3,14.22,'11111222,11111222,11111222' 
TABS,ioos:station:wmo:42044:1,2019-11-08T14:00:00Z,26.1914,-97.0507,0.0,5.43,319.1,14.22,'11111222,11111222,11111222' 
TABS,ioos:station:wmo:42044:1,2019-11-08T14:30:00Z,26.1914,-97.0507,0.0,8.54,319.0,13.17,'11111222,11111222,11111222' 
TABS,ioos:station:wmo:42044:1,2019-11-08T15:30:00Z,26.1914,-97.0507,0.0,6.59,311.3,13.82,'11111222,11111222,11111222' 
TABS,ioos:station:wmo:42044:1,2019-11-08T17:00:00Z,26.1914,-97.0507,0.0,7.03,310.7,14.66,'11111222,11111222,11111222' 
TABS,ioos:station:wmo:42044:1,2019-11-08T18:00:00Z,26.1914,-97.0507,0.0,8.73,311.9,14.4,'11111222,11111222,11111222' 
TABS,ioos:station:wmo:42044:1,2019-11-08T20:30:00Z,26.1914,-97.0507,0.0,8.93,318.8,13.18,'11111222,11111222,11111222' 
TABS,ioos:station:wmo:42044:1,2019-11-08T21:30:00Z,26.1914,-97.0507,0.0,8.67,328.8,13.22,'11111222,11111222,11111222' 
TABS,ioos:station:wmo:42044:1,2019-11-08T23:00:00Z,26.1914,-97.0507,0.0,8.58,337.6,12.24,'11111222,11111222,11111222' 
TABS,ioos:station:wmo:42044:1,2019-11-08T23:30:00Z,26.1914,-97.0507,0.0,8.16,329.2,12.0,'11111222,11111222,11111222' 
TABS,ioos:station:wmo:42044:1,2019-11-09T05:00:00Z,26.1914,-97.0507,0.0,8.19,329.9,11.79,'11111222,11111222,11111222' 
TABS,ioos:station:wmo:42044:1,2019-11-09T06:00:00Z,26.1914,-97.0507,0.0,6.24,315.1,12.03,'11111222,11111222,11111222' 
TABS,ioos:station:wmo:42044:1,2019-11-09T07:00:00Z,26.1914,-97.0507,0.0,8.5,309.7,11.78,'11111222,11111222,11111222' 
TABS,ioos:station:wmo:42044:1,2019-11-09T08:00:00Z,26.1914,-97.0507,0.0,7.47,313.3,11.82,'11111222,11111222,11111222' 
TABS,ioos:station:wmo:42044:1,2019-11-09T09:00:00Z,26.1914,-97.0507,0.0,5.14,316.2,10.84,'11111222,11111222,11111222' 
TABS,ioos:station:wmo:42044:1,2019-11-09T10:00:00Z,26.1914,-97.0507,0.0,5.94,315.8,9.8,'11111222,11111222,11111222' 
TABS,ioos:station:wmo:42044:1,2019-11-09T12:00:00Z,26.1914,-97.0507,0.0,7.31,309.9,10.49,'11111222,11111222,11111222' 
TABS,ioos:station:wmo:42044:1,2019-11-09T13:00:00Z,26.1914,-97.0507,0.0,5.19,310.2,10.48,'11111222,11111222,11111222' 
TABS,ioos:station:wmo:42044:1,2019-11-09T14:00:00Z,26.1914,-97.0507,0.0,5.74,311.2,11.22,'11111222,11111222,11111222' 
TABS,ioos:station:wmo:42044:1,2019-11-09T15:00:00Z,26.1914,-97.0507,0.0,4.53,316.4,10.99,'11111222,11111222,11111222' 
TABS,ioos:station:wmo:42044:1,2019-11-09T16:00:00Z,26.1914,-97.0507,0.0,5.64,319.5,10.39,'11111222,11111222,11111222' 
TABS,ioos:station:wmo:42044:1,2019-11-09T17:00:00Z,26.1914,-97.0507,0.0,8.4,325.5,10.95,'11111222,11111222,11111222' 
TABS,ioos:station:wmo:42044:1,2019-11-09T18:00:00Z,26.1914,-97.0507,0.0,7.95,322.4,10.29,'11111222,11111222,11111222' 
TABS,ioos:station:wmo:42044:1,2019-11-09T19:00:00Z,26.1914,-97.0507,0.0,8.91,329.2,10.56,'11111222,11111222,11111222' 
TABS,ioos:station:wmo:42044:1,2019-11-09T20:00:00Z,26.1914,-97.0507,0.0,8.69,335.3,10.54,'11111222,11111222,11111222' 
TABS,ioos:station:wmo:42044:1,2019-11-09T21:00:00Z,26.1914,-97.0507,0.0,8.36,338.0,10.51,'11111222,11111222,11111222' 
TABS,ioos:station:wmo:42044:1,2019-11-09T22:00:00Z,26.1914,-97.0507,0.0,7.12,343.2,8.45,'11111222,11111222,11111222' 
TABS,ioos:station:wmo:42044:1,2019-11-09T23:30:00Z,26.1914,-97.0507,0.0,6.55,2.1,8.7,'11111222,11111222,11111222' 
TABS,ioos:station:wmo:42044:1,2019-11-10T04:30:00Z,26.1914,-97.0507,0.0,3.67,48.4,5.65,'11111222,11111222,11111222' 
TABS,ioos:station:wmo:42044:1,2019-11-10T06:00:00Z,26.1914,-97.0507,0.0,3.24,59.7,4.48,'11111222,11111222,11111222' 
TABS,ioos:station:wmo:42044:1,2019-11-10T07:00:00Z,26.1914,-97.0507,0.0,3.11,79.5,4.74,'11111222,11111222,11111222' 
TABS,ioos:station:wmo:42044:1,2019-11-10T08:00:00Z,26.1914,-97.0507,0.0,3.11,91.6,4.62,'11111222,11111222,11111222' 
TABS,ioos:station:wmo:42044:1,2019-11-10T09:00:00Z,26.1914,-97.0507,0.0,2.92,113.1,4.02,'11111222,11111222,11111222' 
TABS,ioos:station:wmo:42044:1,2019-11-10T10:00:00Z,26.1914,-97.0507,0.0,2.42,127.3,4.1,'11111222,11111222,11111222' 
TABS,ioos:station:wmo:42044:1,2019-11-10T10:30:00Z,26.1914,-97.0507,0.0,2.81,140.2,3.85,'11111222,11111222,11111222' 
TABS,ioos:station:wmo:42044:1,2019-11-10T11:30:00Z,26.1914,-97.0507,0.0,3.14,135.1,4.08,'11111222,11111222,11111222' 
TABS,ioos:station:wmo:42044:1,2019-11-10T13:00:00Z,26.1914,-97.0507,0.0,2.57,142.4,3.43,'11111222,11111222,11111222' 
TABS,ioos:station:wmo:42044:1,2019-11-10T14:00:00Z,26.1914,-97.0507,0.0,2.16,278.5,2.94,'11111222,11111222,11111222' 
TABS,ioos:station:wmo:42044:1,2019-11-10T15:00:00Z,26.1914,-97.0507,0.0,1.7,325.2,2.35,'11111222,11111222,11111222' 
TABS,ioos:station:wmo:42044:1,2019-11-10T16:00:00Z,26.1914,-97.0507,0.0,1.29,5.8,1.78,'11111222,11111222,11111222' 
TABS,ioos:station:wmo:42044:1,2019-11-10T17:00:00Z,26.1914,-97.0507,0.0,0.42,15.8,1.05,'11111222,11111222,11111222' 
TABS,ioos:station:wmo:42044:1,2019-11-10T18:00:00Z,26.1914,-97.0507,0.0,2.28,93.3,3.27,'11111222,11111222,11111222' 
TABS,ioos:station:wmo:42044:1,2019-11-10T18:30:00Z,26.1914,-97.0507,0.0,3.01,102.3,3.96,'11111222,11111222,11111222' 
TABS,ioos:station:wmo:42044:1,2019-11-10T20:00:00Z,26.1914,-97.0507,0.0,3.12,135.3,4.2,'11111222,11111222,11111222' 
TABS,ioos:station:wmo:42044:1,2019-11-10T21:00:00Z,26.1914,-97.0507,0.0,3.5,147.1,4.48,'11111222,11111222,11111222' 
TABS,ioos:station:wmo:42044:1,2019-11-10T22:00:00Z,26.1914,-97.0507,0.0,2.93,143.9,3.92,'11111222,11111222,11111222' 
TABS,ioos:station:wmo:42044:1,2019-11-10T23:00:00Z,26.1914,-97.0507,0.0,3.91,148.3,5.14,'11111222,11111222,11111222' 
TABS,ioos:station:wmo:42044:1,2019-11-10T23:30:00Z,26.1914,-97.0507,0.0,4.54,147.1,6.05,'11111222,11111222,11111222' 
TABS,ioos:station:wmo:42044:1,2019-11-11T04:30:00Z,26.1914,-97.0507,0.0,5.29,158.5,6.24,'11111222,11111222,11111222' 
TABS,ioos:station:wmo:42044:1,2019-11-11T05:30:00Z,26.1914,-97.0507,0.0,6.19,163.4,7.6,'11111222,11111222,11111222' 
TABS,ioos:station:wmo:42044:1,2019-11-11T06:30:00Z,26.1914,-97.0507,0.0,6.25,161.9,7.96,'11111222,11111222,11111222' 
TABS,ioos:station:wmo:42044:1,2019-11-11T07:30:00Z,26.1914,-97.0507,0.0,5.34,175.3,6.44,'11111222,11111222,11111222' 
TABS,ioos:station:wmo:42044:1,2019-11-11T08:30:00Z,26.1914,-97.0507,0.0,4.4,172.3,5.5,'11111222,11111222,11111222' 
TABS,ioos:station:wmo:42044:1,2019-11-11T09:30:00Z,26.1914,-97.0507,0.0,5.11,165.4,6.25,'11111222,11111222,11111222' 
TABS,ioos:station:wmo:42044:1,2019-11-11T10:30:00Z,26.1914,-97.0507,0.0,5.24,168.7,6.55,'11111222,11111222,11111222' 
TABS,ioos:station:wmo:42044:1,2019-11-11T11:30:00Z,26.1914,-97.0507,0.0,4.33,169.3,5.19,'11111222,11111222,11111222' 
TABS,ioos:station:wmo:42044:1,2019-11-11T13:30:00Z,26.1914,-97.0507,0.0,3.95,160.5,4.94,'11111222,11111222,11111222' 
TABS,ioos:station:wmo:42044:1,2019-11-11T14:30:00Z,26.1914,-97.0507,0.0,3.41,163.2,4.18,'11111222,11111222,11111222' 
TABS,ioos:station:wmo:42044:1,2019-11-11T15:30:00Z,26.1914,-97.0507,0.0,3.69,165.2,4.41,'11111222,11111222,11111222' 
TABS,ioos:station:wmo:42044:1,2019-11-11T16:30:00Z,26.1914,-97.0507,0.0,4.95,165.1,5.99,'11111222,11111222,11111222' 
TABS,ioos:station:wmo:42044:1,2019-11-11T17:30:00Z,26.1914,-97.0507,0.0,4.26,165.8,5.1,'11111222,11111222,11111222' 
TABS,ioos:station:wmo:42044:1,2019-11-11T18:30:00Z,26.1914,-97.0507,0.0,3.22,166.3,4.09,'11111222,11111222,11111222' 
TABS,ioos:station:wmo:42044:1,2019-11-11T19:30:00Z,26.1914,-97.0507,0.0,2.63,143.2,3.29,'11111222,11111222,11111222' 
TABS,ioos:station:wmo:42044:1,2019-11-11T20:30:00Z,26.1914,-97.0507,0.0,1.37,128.6,1.91,'11111222,11111222,11111222' 
TABS,ioos:station:wmo:42044:1,2019-11-11T22:00:00Z,26.1914,-97.0507,0.0,1.4,99.6,2.24,'11111222,11111222,11111222' 
TABS,ioos:station:wmo:42044:1,2019-11-11T23:00:00Z,26.1914,-97.0507,0.0,1.96,79.8,2.47,'11111222,11111222,11111222' 
TABS,ioos:station:wmo:42044:1,2019-11-11T23:30:00Z,26.1914,-97.0507,0.0,2.56,26.6,3.17,'11111222,11111222,11111222' 
TABS,ioos:station:wmo:42044:1,2019-11-12T05:00:00Z,26.1914,-97.0507,0.0,11.45,353.6,17.97,'11111222,11111222,11111222' 
TABS,ioos:station:wmo:42044:1,2019-11-12T07:00:00Z,26.1914,-97.0507,0.0,9.2,338.4,16.16,'11111222,11111222,11111222' 
TABS,ioos:station:wmo:42044:1,2019-11-12T08:30:00Z,26.1914,-97.0507,0.0,10.06,333.4,17.0,'11111222,11111222,11111222' 
TABS,ioos:station:wmo:42044:1,2019-11-12T10:00:00Z,26.1914,-97.0507,0.0,8.2,328.9,15.13,'11111222,11111222,11111222' 
TABS,ioos:station:wmo:42044:1,2019-11-12T11:00:00Z,26.1914,-97.0507,0.0,9.28,322.9,17.28,'11111222,11111222,11111222' 
TABS,ioos:station:wmo:42044:1,2019-11-12T12:00:00Z,26.1914,-97.0507,0.0,9.69,303.8,16.21,'11111222,11111222,11111222' 
TABS,ioos:station:wmo:42044:1,2019-11-12T13:00:00Z,26.1914,-97.0507,0.0,9.25,305.1,17.96,'11111222,11111222,11111222' 
TABS,ioos:station:wmo:42044:1,2019-11-12T13:30:00Z,26.1914,-97.0507,0.0,8.6,303.4,16.15,'11111222,11111222,11111222' 
TABS,ioos:station:wmo:42044:1,2019-11-12T15:00:00Z,26.1914,-97.0507,0.0,9.36,303.3,16.81,'11111222,11111222,11111222' 